TimeCST,TemperatureF,Dew PointF,Humidity,Sea Level PressureIn,VisibilityMPH,Wind Direction,Wind SpeedMPH,Gust SpeedMPH,PrecipitationIn,Events,Conditions,WindDirDegrees,DateUTC
12:53 AM,48.0,44.1,86,30.18,6.0,Calm,Calm,-,N/A,,Clear,0,2012-11-21 06:53:00
1:53 AM,48.0,41.0,77,30.18,8.0,Calm,Calm,-,N/A,,Clear,0,2012-11-21 07:53:00
2:53 AM,46.0,45.0,96,30.18,6.0,Calm,Calm,-,N/A,,Clear,0,2012-11-21 08:53:00
3:53 AM,45.0,39.0,80,30.18,7.0,Calm,Calm,-,N/A,,Clear,0,2012-11-21 09:53:00
4:53 AM,44.1,42.1,93,30.18,7.0,Calm,Calm,-,N/A,,Clear,0,2012-11-21 10:53:00
5:53 AM,45.0,43.0,93,30.20,6.0,Calm,Calm,-,N/A,,Clear,0,2012-11-21 11:53:00
6:53 AM,45.0,41.0,86,30.23,7.0,Calm,Calm,-,N/A,,Clear,0,2012-11-21 12:53:00
7:53 AM,51.1,48.0,89,30.24,6.0,Calm,Calm,-,N/A,,Clear,0,2012-11-21 13:53:00
8:07 AM,51.8,48.2,88,30.23,7.0,WNW,3.5,-,N/A,,Partly Cloudy,300,2012-11-21 14:07:00
8:53 AM,57.9,51.1,78,30.26,8.0,WNW,4.6,-,N/A,,Clear,290,2012-11-21 14:53:00
9:53 AM,66.0,52.0,60,30.26,10.0,North,3.5,-,N/A,,Clear,10,2012-11-21 15:53:00
10:53 AM,71.1,53.1,53,30.25,10.0,Calm,Calm,-,N/A,,Clear,0,2012-11-21 16:53:00
11:53 AM,73.9,48.9,41,30.23,10.0,North,8.1,-,N/A,,Clear,360,2012-11-21 17:53:00
12:53 PM,75.9,41.0,29,30.20,10.0,NNW,5.8,-,N/A,,Clear,330,2012-11-21 18:53:00
1:53 PM,78.1,37.9,24,30.18,10.0,NNE,6.9,-,N/A,,Clear,30,2012-11-21 19:53:00
2:53 PM,77.0,37.0,24,30.17,10.0,North,8.1,-,N/A,,Clear,10,2012-11-21 20:53:00
3:53 PM,75.9,37.0,24,30.17,10.0,NNE,5.8,-,N/A,,Clear,30,2012-11-21 21:53:00
4:53 PM,68.0,41.0,37,30.17,10.0,NNE,3.5,-,N/A,,Clear,30,2012-11-21 22:53:00
5:53 PM,59.0,41.0,51,30.18,10.0,NNE,3.5,-,N/A,,Clear,30,2012-11-21 23:53:00
6:53 PM,61.0,41.0,48,30.19,10.0,NE,4.6,-,N/A,,Clear,40,2012-11-22 00:53:00
7:53 PM,54.0,42.1,64,30.20,10.0,Calm,Calm,-,N/A,,Clear,0,2012-11-22 01:53:00
8:53 PM,51.1,37.9,61,30.21,10.0,Calm,Calm,-,N/A,,Clear,0,2012-11-22 02:53:00
9:53 PM,48.9,37.9,66,30.22,10.0,Calm,Calm,-,N/A,,Clear,0,2012-11-22 03:53:00
10:53 PM,46.9,39.9,77,30.21,10.0,Calm,Calm,-,N/A,,Clear,0,2012-11-22 04:53:00
11:53 PM,46.0,39.9,79,30.20,10.0,Calm,Calm,-,N/A,,Clear,0,2012-11-22 05:53:00